Gulkana, AK

1:01 AM AKST on January 21, 2018 (GMT -0900)
Gulkana

Weather History for PAGK - December, 2012

Change the Weather History Date:

Monday, December 31, 2012

  Actual Average Record
Temperature  
Mean Temperature 26 °F -  
Max Temperature 33 °F 8 °F 41 °F (1980)
Min Temperature 18 °F -6 °F -49 °F (1949)
Degree Days  
Heating Degree Days 40    
Moisture  
Dew Point 22 °F    
Average Humidity 72    
Maximum Humidity 81    
Minimum Humidity 55    
Precipitation  
Precipitation 0.00 in - - ()
Snow  
Snow 0.00 in - - ()
Snow Depth 9.00 in    
Sea Level Pressure  
Sea Level Pressure 29.80 in    
Wind  
Wind Speed 15 mph (SSE)    
Max Wind Speed 21 mph    
Max Gust Speed 24 mph    
Visibility 10 miles    
Events      
Averages and records for this station are not official NWS values.
T = Trace of Precipitation, MM = Missing Value Source: NWS Daily Summary

Daily Weather History Graph

Daily Weather History Graph

Search for Another Location

Airport or City:

Trip Planner

Search our weather history database for the weather conditions in past years. The results will help you decide how hot, cold, wet, or windy it might be!

Date:

Astronomy

Dec. 31, 2012 Rise Set
Actual Time 10:06 AM AKST 3:24 PM AKST
Civil Twilight 9:01 AM AKST 4:29 PM AKST
Nautical Twilight 7:59 AM AKST 5:30 PM AKST
Astronomical Twilight 7:04 AM AKST 6:25 PM AKST
Moon 8:27 PM AKST (12/31) 10:36 AM AKST (12/31)
Length of Visible Light 7h 27m
Length of Day
5h 17m
Waning Gibbous, 89% of the Moon is Illuminated
Dec 31
Waning Gibbous
Jan 4
Last Quarter
Jan 11
New
Jan 18
First Quarter
Jan 26
Full

Hourly Weather History & Observations

Time (AKST) Temp. Windchill Dew Point Humidity Pressure Visibility Wind Dir Wind Speed Gust Speed Precip Events Conditions
12:53 AM 34.0 °F 23.8 °F 25.0 °F 70% 29.57 in 10.0 mi SSE 16.1 mph 24.2 mph N/A   Clear
1:53 AM 33.1 °F 22.2 °F 24.1 °F 70% 29.59 in 10.0 mi SSE 17.3 mph - N/A   Clear
3:53 AM 32.0 °F 21.2 °F 24.1 °F 73% 29.64 in 10.0 mi SSE 16.1 mph - N/A   Scattered Clouds
4:53 AM 30.9 °F 19.8 °F 23.0 °F 72% 29.66 in 10.0 mi South 16.1 mph - N/A   Clear
5:53 AM 30.9 °F 18.7 °F 23.0 °F 72% 29.68 in 10.0 mi SSE 19.6 mph - N/A   Clear
6:00 AM 30.9 °F 18.7 °F 23.0 °F 72% 29.60 in 10.0 mi SSE 19.6 mph - N/A   Scattered Clouds
6:53 AM 30.9 °F 19.8 °F 23.0 °F 72% 29.71 in 10.0 mi South 16.1 mph - N/A   Scattered Clouds
7:53 AM 30.0 °F 20.0 °F 23.0 °F 75% 29.74 in 10.0 mi SSE 12.7 mph - N/A   Scattered Clouds
8:53 AM 30.0 °F 18.3 °F 23.0 °F 75% 29.76 in 10.0 mi SSE 17.3 mph - N/A   Scattered Clouds
9:53 AM 30.0 °F 18.3 °F 23.0 °F 75% 29.81 in 10.0 mi South 17.3 mph - N/A   Scattered Clouds
10:53 AM 30.0 °F 18.7 °F 24.1 °F 79% 29.85 in 10.0 mi South 16.1 mph - N/A   Scattered Clouds
11:53 AM 28.9 °F 18.2 °F 23.0 °F 78% 29.88 in 10.0 mi SSE 13.8 mph - N/A   Scattered Clouds
12:53 PM 28.9 °F 19.8 °F 23.0 °F 78% 29.89 in 10.0 mi South 10.4 mph - N/A   Scattered Clouds
1:53 PM 30.0 °F 21.1 °F 23.0 °F 75% 29.89 in 10.0 mi South 10.4 mph - N/A   Scattered Clouds
2:53 PM 30.0 °F 19.5 °F 23.0 °F 75% 29.91 in 10.0 mi South 13.8 mph - N/A   Scattered Clouds
3:53 PM 28.9 °F 16.9 °F 21.9 °F 75% 29.93 in 10.0 mi SSE 17.3 mph - N/A   Scattered Clouds
4:53 PM 26.1 °F 15.0 °F 21.0 °F 81% 29.93 in 10.0 mi SSE 12.7 mph - N/A   Scattered Clouds
5:53 PM 27.0 °F 15.6 °F 21.0 °F 78% 29.92 in 10.0 mi South 13.8 mph - N/A   Scattered Clouds
6:53 PM 28.0 °F 20.0 °F 21.9 °F 78% 29.92 in 10.0 mi South 8.1 mph - N/A   Scattered Clouds
7:53 PM 28.0 °F 19.3 °F 21.9 °F 78% 29.91 in 10.0 mi SSE 9.2 mph - N/A   Mostly Cloudy
8:53 PM 30.9 °F 23.5 °F 21.0 °F 67% 29.88 in 10.0 mi East 8.1 mph - N/A   Overcast
9:28 PM 30.0 °F 24.1 °F 19.9 °F 66% 29.80 in 10.0 mi NE 5.8 mph - N/A   Overcast
9:53 PM 28.0 °F 20.0 °F 19.0 °F 69% 29.89 in 10.0 mi NNE 8.1 mph - N/A   Clear
10:53 PM 26.1 °F 19.4 °F 18.0 °F 71% 29.86 in 10.0 mi NNE 5.8 mph - N/A   Mostly Cloudy
11:53 PM 27.0 °F 23.0 °F 17.1 °F 66% 29.84 in 10.0 mi SSE 3.5 mph - N/A   Clear